Regional Weather Roundup
Issued by NWS

Home | Current Version | Previous Version | Graphics & Text | Print | Product List | Glossary On
Versions: 1 2 3 4 5 6 7 8 9 10 11 12 13 14 15 16 17 18 19 20 21 22 23 24 25 26 27 28 29 30 31 32 33 34 35 36 37 38 39 40 41 42 43 44 45 46 47 48 49 50
000
ASUS43 KLSX 230207
RWRMO

WEATHER SUMMARY FOR MISSOURI
NATIONAL WEATHER SERVICE SPRINGFIELD MO
900 PM CDT THU JUN 22 2017

NOTE: "FAIR" INDICATES FEW OR NO CLOUDS BELOW 12,000 FEET WITH NO
       SIGNIFICANT WEATHER AND/OR OBSTRUCTIONS TO VISIBILITY.
       CURRENT SKY AND/OR WEATHER CONDITIONS ARE NOT AVAILABLE FOR
       CHILLICOTHE AND FARMINGTON.

MOZ001>031-035>038-043-044-053-054-230300-
...NORTHERN AND WESTERN MISSOURI...

CITY           SKY/WX    TMP DP  RH WIND       PRES   REMARKS
KANSAS CTY INT MOCLDY    80  72  76 SW6       29.68R
KANSAS C DTWN  CLEAR     84  73  69 S7        29.66R HX  90
LEE`S SUMMIT   CLEAR     81  74  79 S7        29.69R
ST JOSEPH      PTCLDY    81  73  76 S7        29.67R
CHILLICOTHE      N/A     81  73  76 S3        29.68F
KIRKSVILLE     MOCLDY    77  72  84 S7        29.71S

$$
MOZ066>068-077>081-088>096-101>105-230300-
...SOUTHWEST MISSOURI...

CITY           SKY/WX    TMP DP  RH WIND       PRES   REMARKS
SPRINGFIELD    CLOUDY    80  71  74 SE13      29.71S
JOPLIN         CLEAR     81  75  82 CALM      29.68F
BRANSON        CLOUDY    75  72  88 SE9       29.74S

$$
MOZ032>034-039>042-045>050-055>058-069>072-230300-
...CENTRAL MISSOURI...

CITY           SKY/WX    TMP DP  RH WIND       PRES   REMARKS
COLUMBIA       PTCLDY    79  74  84 SE6       29.70F
JEFFERSON CITY CLOUDY    81  73  76 SE5       29.68F
ROLLA          PTCLDY    77  73  87 SE7       29.73S
SEDALIA        CLEAR     79  76  90 SE6       29.69F
WHITEMAN AFB   PTCLDY    79  78  96 SE5       29.67R
WARRENSBURG    CLEAR     79  72  78 SE3       29.68R
OSAGE BEACH    PTCLDY    79  74  84 SE5       29.71F

$$
MOZ051-052-059>065-230300-
...EAST CENTRAL MISSOURI...

CITY           SKY/WX    TMP DP  RH WIND       PRES   REMARKS
ST LOUIS INTL  CLOUDY    83  72  69 SE12      29.74S
SPIRIT OF STL  MOCLDY    81  73  76 SE6       29.72R
ST CHARLES     PTCLDY    80  73  79 MISG      29.71S

$$
MOZ072>076-082>087-097>100-106>115-230300-
...SOUTH CENTRAL AND SOUTHEAST MISSOURI...

CITY           SKY/WX    TMP DP  RH WIND       PRES   REMARKS
CAPE GIRARDEAU CLOUDY    78  75  90 E6        29.76S
FARMINGTON     LGT RAIN  78  74  87 SE6       29.77F
POPLAR BLUFF   LGT RAIN  78  78 100 N3        29.73F
WEST PLAINS    CLOUDY    76  72  87 SE6       29.77S

$$



USA.gov is the U.S. government's official web portal to all federal, state and local government web resources and services.